Weather History for Sidney, NE

Change the Weather History Date:

Saturday, June 29, 2013

  Actual Average Record
Temperature  
Mean Temperature 73 °F 72 °F  
Max Temperature 91 °F 88 °F 106 °F (2012)
Min Temperature 54 °F 57 °F 44 °F (2008)
Degree Days  
Heating Degree Days 0 0  
Month to date heating degree days 37 58  
Since 1 June heating degree days 37 58  
Since 1 July heating degree days 6677 6220  
Cooling Degree Days 8 8  
Month to date cooling degree days 164 129  
Year to date cooling degree days 197 151  
Since 1 June cooling degree days 164 129  
Growing Degree Days 22 (Base 50)    
Moisture  
Dew Point 49 °F    
Average Humidity 53    
Maximum Humidity 83    
Minimum Humidity 23    
Precipitation  
Precipitation T in 0.09 in 0.80 in (1962)
Month to date precipitation 0.30 3.09  
Year to date precipitation 6.08 9.85  
Sea Level Pressure  
Sea Level Pressure 30.06 in    
Wind  
Wind Speed 7 mph (NE)    
Max Wind Speed 20 mph    
Max Gust Speed 37 mph    
Visibility 10 miles    
Events Thunderstorm    
T = Trace of Precipitation, MM = Missing Value Source: NWS Daily Summary

Daily Weather History Graph

Daily Weather History Graph

Search for Another Location

Airport:

Trip Planner

Search our weather history database for the weather conditions in past years. The results will help you decide how hot, cold, wet, or windy it might be!

Date:

Astronomy

Jun. 29, 2013 Rise Set
Actual Time 5:22 AM MDT 8:28 PM MDT
Civil Twilight 4:48 AM MDT 9:02 PM MDT
Nautical Twilight 4:05 AM MDT 9:44 PM MDT
Astronomical Twilight 3:15 AM MDT 10:35 PM MDT
Moon No Moon Rise 12:40 PM MDT (6/29)
Length of Visible Light 16h 13m
Length of Day
15h 06m
Waning Gibbous, 55% of the Moon is Illuminated
Jun 29
Waning Gibbous
Jun 29
Last Quarter
Jul 8
New
Jul 15
First Quarter
Jul 22
Full

Hourly Weather History & Observations

Time (MDT) Temp. Dew Point Humidity Pressure Visibility Wind Dir Wind Speed Gust Speed Precip Events Conditions
12:53 AM 64.0 °F 48.9 °F 58% 30.09 in 10.0 mi ENE 5.8 mph - N/A   Clear
1:53 AM 57.9 °F 48.0 °F 70% 30.11 in 10.0 mi SW 5.8 mph - N/A   Partly Cloudy
2:53 AM 57.9 °F 48.0 °F 70% 30.11 in 10.0 mi West 3.5 mph - N/A   Clear
3:08 AM 62.6 °F 50.0 °F 63% 30.27 in 10.0 mi NNE 6.9 mph - N/A Thunderstorm Scattered Clouds
3:23 AM 60.8 °F 51.8 °F 72% 30.26 in 10.0 mi Calm Calm - 0.00 in   Scattered Clouds
3:53 AM 57.0 °F 50.0 °F 77% 30.09 in 10.0 mi Calm Calm - 0.00 in   Partly Cloudy
4:53 AM 55.9 °F 48.9 °F 77% 30.09 in 10.0 mi NW 3.5 mph - N/A   Mostly Cloudy
5:53 AM 55.9 °F 50.0 °F 80% 30.09 in 10.0 mi WNW 4.6 mph - N/A   Clear
6:53 AM 66.0 °F 52.0 °F 60% 30.06 in 10.0 mi Calm Calm - N/A   Clear
7:53 AM 73.9 °F 51.1 °F 45% 30.06 in 10.0 mi WSW 3.5 mph - N/A   Clear
8:53 AM 77.0 °F 48.9 °F 37% 30.07 in 10.0 mi Calm Calm - N/A   Clear
9:53 AM 82.0 °F 50.0 °F 33% 30.07 in 10.0 mi Variable 3.5 mph - N/A   Clear
10:53 AM 84.0 °F 50.0 °F 31% 30.06 in 10.0 mi Calm Calm - N/A   Clear
11:53 AM 86.0 °F 48.0 °F 27% 30.04 in 10.0 mi NNE 10.4 mph 21.9 mph N/A   Clear
12:53 PM 87.1 °F 46.9 °F 25% 30.02 in 10.0 mi NNE 11.5 mph 18.4 mph N/A   Scattered Clouds
1:53 PM 90.0 °F 46.0 °F 22% 30.02 in 10.0 mi North 15.0 mph 23.0 mph N/A   Clear
2:53 PM 89.1 °F 46.9 °F 23% 30.00 in 10.0 mi North 16.1 mph 19.6 mph N/A   Partly Cloudy
3:53 PM 88.0 °F 48.9 °F 26% 29.99 in 10.0 mi NE 9.2 mph 20.7 mph N/A   Scattered Clouds
4:53 PM 89.1 °F 50.0 °F 26% 29.99 in 10.0 mi North 12.7 mph 21.9 mph N/A   Mostly Cloudy
5:53 PM 84.9 °F 51.1 °F 31% 29.99 in 10.0 mi ENE 13.8 mph 23.0 mph N/A   Clear
6:53 PM 82.9 °F 51.1 °F 33% 29.98 in 10.0 mi ENE 13.8 mph - N/A   Clear
7:53 PM 78.1 °F 51.1 °F 39% 29.99 in 10.0 mi ENE 17.3 mph - N/A   Clear
8:53 PM 72.0 °F 50.0 °F 46% 30.01 in 10.0 mi ENE 10.4 mph - N/A   Clear
9:53 PM 68.0 °F 48.0 °F 49% 30.04 in 10.0 mi East 9.2 mph - N/A   Clear
10:53 PM 60.1 °F 46.9 °F 62% 30.08 in 10.0 mi SSE 4.6 mph - N/A   Clear
11:53 PM 61.0 °F 46.0 °F 58% 30.08 in 10.0 mi ESE 3.5 mph - N/A   Clear